Huntingburg, IN

12:20 AM EDT on March 27, 2017 (GMT -0400)
Huntingburg

Weather History for KHNB - March, 2013

Change the Weather History Date:

Sunday, March 10, 2013

  Actual Average Record
Temperature  
Mean Temperature 60 °F -  
Max Temperature 66 °F 48 °F 75 °F (2009)
Min Temperature 53 °F 31 °F 17 °F (2003)
Degree Days  
Heating Degree Days 6    
Growing Degree Days 10 (Base 50)    
Moisture  
Dew Point 38 °F    
Average Humidity 47    
Maximum Humidity 82    
Minimum Humidity 34    
Precipitation  
Precipitation 0.02 in - - ()
Sea Level Pressure  
Sea Level Pressure 29.88 in    
Wind  
Wind Speed 13 mph (SSE)    
Max Wind Speed 21 mph    
Max Gust Speed 34 mph    
Visibility 10 miles    
Events      
Averages and records for this station are not official NWS values.
T = Trace of Precipitation, MM = Missing Value Source: NWS Daily Summary

Daily Weather History Graph

Daily Weather History Graph

Search for Another Location

Airport or City:

Trip Planner

Search our weather history database for the weather conditions in past years. The results will help you decide how hot, cold, wet, or windy it might be!

Date:

Astronomy

Mar. 10, 2013 Rise Set
Actual Time 8:06 AM EDT 7:50 PM EDT
Civil Twilight 7:39 AM EDT 8:16 PM EDT
Nautical Twilight 7:09 AM EDT 8:47 PM EDT
Astronomical Twilight 6:38 AM EDT 9:18 PM EDT
Moon 7:05 AM EDT (3/10) 6:57 PM EDT (3/10)
Length of Visible Light 12h 36m
Length of Day
11h 44m
Waning Crescent, 2% of the Moon is Illuminated
Mar 10
Waning Crescent
Mar 11
New
Mar 19
First Quarter
Mar 27
Full
Apr 3
Last Quarter

Hourly Weather History & Observations

Time (EDT) Temp. Dew Point Humidity Pressure Visibility Wind Dir Wind Speed Gust Speed Precip Events Conditions
12:15 AM 55.4 °F 33.8 °F 44% 30.00 in 10.0 mi South 11.5 mph 18.4 mph N/A   Clear
12:35 AM 55.4 °F 33.8 °F 44% 29.99 in 10.0 mi South 11.5 mph 18.4 mph N/A   Clear
12:55 AM 55.4 °F 33.8 °F 44% 29.98 in 10.0 mi South 12.7 mph 20.7 mph N/A   Clear
1:15 AM 55.4 °F 33.8 °F 44% 29.98 in 10.0 mi SSE 12.7 mph - N/A   Clear
1:35 AM 55.4 °F 33.8 °F 44% 29.98 in 10.0 mi South 10.4 mph 17.3 mph N/A   Clear
1:55 AM 55.4 °F 33.8 °F 44% 29.98 in 10.0 mi South 10.4 mph 17.3 mph N/A   Clear
3:15 AM 53.6 °F 33.8 °F 47% 29.97 in 10.0 mi South 11.5 mph 16.1 mph N/A   Clear
3:35 AM 53.6 °F 33.8 °F 47% 29.97 in 10.0 mi South 11.5 mph 17.3 mph N/A   Clear
3:55 AM 53.6 °F 33.8 °F 47% 29.96 in 10.0 mi South 9.2 mph - N/A   Clear
4:15 AM 53.6 °F 33.8 °F 47% 29.96 in 10.0 mi South 10.4 mph - N/A   Clear
4:35 AM 53.6 °F 33.8 °F 47% 29.95 in 10.0 mi South 11.5 mph 17.3 mph N/A   Clear
4:55 AM 53.6 °F 33.8 °F 47% 29.95 in 10.0 mi SSE 10.4 mph - N/A   Clear
5:15 AM 53.6 °F 33.8 °F 47% 29.95 in 10.0 mi SSE 12.7 mph 18.4 mph N/A   Clear
5:35 AM 53.6 °F 33.8 °F 47% 29.94 in 10.0 mi SSE 12.7 mph 17.3 mph N/A   Clear
5:55 AM 53.6 °F 33.8 °F 47% 29.95 in 10.0 mi SSE 12.7 mph 17.3 mph N/A   Clear
6:15 AM 53.6 °F 33.8 °F 47% 29.94 in 10.0 mi SSE 13.8 mph 20.7 mph N/A   Clear
6:35 AM 53.6 °F 33.8 °F 47% 29.95 in 10.0 mi SSE 12.7 mph 19.6 mph N/A   Scattered Clouds
6:55 AM 53.6 °F 33.8 °F 47% 29.96 in 10.0 mi South 16.1 mph 20.7 mph N/A   Scattered Clouds
7:15 AM 55.4 °F 33.8 °F 44% 29.95 in 10.0 mi South 12.7 mph 20.7 mph N/A   Partly Cloudy
8:35 AM 55.4 °F 35.6 °F 47% 29.95 in 10.0 mi SSE 15.0 mph 21.9 mph N/A   Clear
8:55 AM 55.4 °F 35.6 °F 47% 29.95 in 10.0 mi South 12.7 mph 23.0 mph N/A   Clear
9:15 AM 55.4 °F 35.6 °F 47% 29.95 in 10.0 mi South 16.1 mph 21.9 mph N/A   Clear
9:35 AM 57.2 °F 35.6 °F 44% 29.96 in 10.0 mi South 17.3 mph 24.2 mph N/A   Clear
9:55 AM 57.2 °F 35.6 °F 44% 29.97 in 10.0 mi South 17.3 mph 26.5 mph N/A   Clear
10:15 AM 57.2 °F 35.6 °F 44% 29.95 in 10.0 mi SSE 13.8 mph 23.0 mph N/A   Clear
10:35 AM 57.2 °F 35.6 °F 44% 29.95 in 10.0 mi South 15.0 mph 26.5 mph N/A   Clear
10:55 AM 57.2 °F 35.6 °F 44% 29.95 in 10.0 mi South 13.8 mph 26.5 mph N/A   Clear
11:15 AM 57.2 °F 35.6 °F 44% 29.94 in 10.0 mi SSE 17.3 mph 24.2 mph N/A   Clear
11:35 AM 59.0 °F 35.6 °F 42% 29.93 in 10.0 mi South 20.7 mph 26.5 mph N/A   Clear
11:55 AM 60.8 °F 35.6 °F 39% 29.94 in 10.0 mi South 18.4 mph 26.5 mph N/A   Clear
12:15 PM 60.8 °F 35.6 °F 39% 29.95 in 10.0 mi South 18.4 mph 25.3 mph N/A   Clear
12:35 PM 60.8 °F 35.6 °F 39% 29.93 in 10.0 mi SSE 17.3 mph 23.0 mph N/A   Clear
12:55 PM 62.6 °F 37.4 °F 39% 29.94 in 10.0 mi South 18.4 mph 27.6 mph N/A   Clear
1:15 PM 62.6 °F 37.4 °F 39% 29.92 in 10.0 mi SSE 19.6 mph 27.6 mph N/A   Clear
1:35 PM 62.6 °F 37.4 °F 39% 29.92 in 10.0 mi South 16.1 mph 25.3 mph N/A   Clear
1:55 PM 64.4 °F 37.4 °F 37% 29.90 in 10.0 mi SSE 18.4 mph 28.8 mph N/A   Clear
2:15 PM 64.4 °F 37.4 °F 37% 29.86 in 10.0 mi SSE 20.7 mph 25.3 mph N/A   Clear
2:55 PM 64.4 °F 37.4 °F 37% 29.87 in 10.0 mi SSE 18.4 mph 27.6 mph N/A   Clear
3:15 PM 66.2 °F 39.2 °F 37% 29.87 in 10.0 mi South 18.4 mph 29.9 mph N/A   Clear
3:35 PM 66.2 °F 39.2 °F 37% 29.85 in 10.0 mi South 17.3 mph 34.5 mph N/A   Clear
4:15 PM 64.4 °F 37.4 °F 37% 29.83 in 10.0 mi SSE 19.6 mph 26.5 mph N/A   Clear
4:35 PM 64.4 °F 35.6 °F 34% 29.81 in 10.0 mi SSE 15.0 mph 21.9 mph N/A   Clear
4:55 PM 64.4 °F 35.6 °F 34% 29.81 in 10.0 mi SSE 13.8 mph 19.6 mph N/A   Clear
5:15 PM 64.4 °F 35.6 °F 34% 29.79 in 10.0 mi SSE 13.8 mph 25.3 mph N/A   Clear
5:35 PM 64.4 °F 35.6 °F 34% 29.78 in 10.0 mi SE 17.3 mph 23.0 mph N/A   Clear
5:55 PM 64.4 °F 35.6 °F 34% 29.78 in 10.0 mi SSE 18.4 mph 25.3 mph N/A   Clear
6:15 PM 64.4 °F 35.6 °F 34% 29.77 in 10.0 mi SSE 15.0 mph 24.2 mph N/A   Clear
6:35 PM 64.4 °F 35.6 °F 34% 29.76 in 10.0 mi SSE 13.8 mph 23.0 mph N/A   Clear
6:55 PM 64.4 °F 37.4 °F 37% 29.76 in 10.0 mi SSE 13.8 mph 25.3 mph N/A   Scattered Clouds
7:15 PM 64.4 °F 37.4 °F 37% 29.76 in 10.0 mi SSE 16.1 mph 27.6 mph N/A   Mostly Cloudy
7:35 PM 64.4 °F 37.4 °F 37% 29.76 in 10.0 mi SSE 13.8 mph 25.3 mph N/A   Overcast
7:55 PM 64.4 °F 37.4 °F 37% 29.76 in 10.0 mi SSE 15.0 mph 25.3 mph N/A   Mostly Cloudy
8:15 PM 64.4 °F 37.4 °F 37% 29.75 in 10.0 mi SSE 16.1 mph 23.0 mph N/A   Mostly Cloudy
8:35 PM 64.4 °F 37.4 °F 37% 29.80 in 10.0 mi South 15.0 mph 21.9 mph N/A   Overcast
8:55 PM 59.0 °F 42.8 °F 55% 29.82 in 10.0 mi South 15.0 mph 21.9 mph N/A   Overcast
9:15 PM 59.0 °F 42.8 °F 55% 29.83 in 10.0 mi SSW 15.0 mph 25.3 mph N/A   Overcast
9:35 PM 57.2 °F 42.8 °F 59% 29.83 in 10.0 mi WSW 10.4 mph - N/A   Mostly Cloudy
10:15 PM 55.4 °F 46.4 °F 72% 29.81 in 10.0 mi South 8.1 mph - N/A   Mostly Cloudy
10:35 PM 55.4 °F 46.4 °F 72% 29.82 in 10.0 mi South 6.9 mph - N/A   Mostly Cloudy
10:55 PM 55.4 °F 46.4 °F 72% 29.82 in 10.0 mi SSE 8.1 mph - N/A   Overcast
11:15 PM 53.6 °F 48.2 °F 82% 29.80 in 9.0 mi SE 12.7 mph - 0.02 in   Overcast
11:35 PM 53.6 °F 48.2 °F 82% 29.78 in 10.0 mi SE 12.7 mph 17.3 mph 0.02 in   Scattered Clouds
11:55 PM 53.6 °F 48.2 °F 82% 29.79 in 10.0 mi SSE 9.2 mph - 0.02 in   Partly Cloudy
12:15 AM 53.6 °F 48.2 °F 82% 29.77 in 10.0 mi SSE 9.2 mph - N/A   Mostly Cloudy
12:35 AM 53.6 °F 48.2 °F 82% 29.78 in 10.0 mi SSE 5.8 mph - N/A   Overcast
12:55 AM 53.6 °F 48.2 °F 82% 29.79 in 10.0 mi South 6.9 mph - N/A   Overcast